Port Angeles, WA
on Tuesday, January 22, 2013

Tuesday
Previous Day Next Day
Daily Summary
 ActualAverageRecord
Temperature
Mean Temperature °F °F  
Max Temperature 37°F 46°F 62°F (2002)
Min Temperature 35°F 36°F 16°F (1969)
Degree Days
Heating Degree Days 29    
Moisture
Dew Point 34°F   
Average Humidity 88    
Maximum Humidity 93    
Minimum Humidity 83    
Precipitation
Precipitation 0.00 in in in ()
Wind
Wind Speed 3 mph   
Max Wind Speed 6 mph   
Max Gust Speed mph   
Visibility 10 miles   
Events     
Averages and records for this station are not official NWS values.
Key: T is trace of precipitation, MM is missing value
Source: NWS Daily Summary
Seasonal Weather Averages
Time(PST)TemperatureDew PointHumidity Pressure Visibility Wind DirectionWind SpeedGust SpeedPrecipitationEvents Conditions
12:53 AM 37.0°F 34.0°F 89% 30.13 in 10.0 miles Calm Calm - N/A   Overcast
1:53 AM 35.1°F 33.1°F 92% 30.13 in 10.0 miles WSW 4.6 mph - N/A   Overcast
2:53 AM 36.0°F 33.1°F 89% 30.12 in 10.0 miles Calm Calm - N/A   Overcast
3:53 AM 37.4°F 33.8°F 87% 30.10 in 10.0 miles SE 5.8 mph - N/A   Overcast
4:53 AM 36.0°F 33.1°F 89% 30.10 in 10.0 miles SE 5.8 mph - N/A   Overcast
5:53 AM 36.0°F 34.0°F 93% 30.09 in 10.0 miles South 4.6 mph - N/A   Overcast
6:53 AM 36.0°F 34.0°F 93% 30.09 in 10.0 miles SSE 3.5 mph - N/A   Overcast
7:53 AM 36.0°F 34.0°F 93% 30.07 in 10.0 miles SSE 3.5 mph - N/A   Overcast
8:53 AM 37.0°F 34.0°F 89% 30.07 in 10.0 miles SE 4.6 mph - N/A   Overcast
9:53 AM 37.0°F 34.0°F 89% 30.08 in 10.0 miles SSE 3.5 mph - N/A   Overcast
10:53 AM 37.9°F 35.1°F 89% 30.07 in 10.0 miles East 3.5 mph - N/A   Overcast
11:53 AM 37.9°F 34.0°F 86% 30.06 in 10.0 miles SE 4.6 mph - N/A   Overcast
12:53 PM 37.9°F 34.0°F 86% 30.03 in 10.0 miles ESE 4.6 mph - N/A   Overcast
1:53 PM 37.9°F 34.0°F 86% 30.01 in 10.0 miles ESE 5.8 mph - N/A   Overcast
2:53 PM 37.9°F 34.0°F 86% 30.00 in 10.0 miles ESE 3.5 mph - N/A   Overcast
3:53 PM 37.9°F 34.0°F 86% 29.97 in 10.0 miles ESE 3.5 mph - N/A   Overcast
4:53 PM 37.9°F 33.1°F 83% 29.97 in 10.0 miles Calm Calm - N/A   Overcast
5:46 PM 37.0°F 33.1°F 86% 29.95 in 10.0 miles South 3.5 mph - N/A   Scattered Clouds
5:53 PM 36.0°F 33.1°F 89% 29.96 in 10.0 miles Calm Calm - N/A   Partly Cloudy
6:53 PM 36.0°F 33.1°F 89% 29.95 in 10.0 miles SW 3.5 mph - N/A   Clear
7:53 PM 36.0°F 33.1°F 89% 29.95 in 10.0 miles SSW 3.5 mph - N/A   Clear
8:53 PM 36.0°F 33.1°F 89% 29.93 in 10.0 miles Calm Calm - N/A   Overcast
9:53 PM 36.0°F 33.1°F 89% 29.93 in 10.0 miles Calm Calm - N/A   Overcast
10:53 PM 37.0°F 33.1°F 86% 29.94 in 10.0 miles Calm Calm - N/A   Overcast
11:53 PM 37.0°F 33.1°F 86% 29.94 in 10.0 miles Variable 4.6 mph - N/A   Overcast
Moon Phase
Jan. 22 Jan. 26 Feb. 03 Feb. 10 Feb. 17
Sunrise:07:53 AM (PST) Moon Rise:01:22 PM (PST)1/22
Sunset:04:58 PM (PST) Moon Set:04:22 AM (PST)1/22

Copyright © 2014 The Weather Underground, Inc.